SCP
0 0 0 0 0 0 0 0 0 0 -0 -0 -0 -0 -0 -0 0 -0 0 0 0 -0 0 0 0 0 0 0 0 0 0 0 0 0 0 0 0 0 0 0 0 0 0
0 0 0 0 0 0 0 0 0 -0 -0 -0 -0 -0 -0 -0 0 0 0 -0 -0 -0 0 0 0 0 0 0 0 0 0 0 0 0 0 0 0 0 0 0 0 0 0
0 0 0 0 0 0 -0 -0 -0 0 -0 -0 -0 -0 -0 0 -0 -0 -0 0 0 0 0 0 0 0 0 0 0 0 0 0 0 0 0 0 0 0 0 0 0 0 0
0 0 0 0 -0 -0 -0 0 -0 0 -0 0 0 0 -0 -0 -0 0 0 0 0 0 0 0 0 0 0 0 0 0 0 0 0 0 0 0 0 0 0 0 0 0 0
0 0 -0 -0 -0 -0 -0 0 0 0 0 -0 -0 -0 -0 -0 0 0 0 0 0 0 0 0 0 0 -0 -0 0 0 0 0 0 0 0 0 0 0 0 0 0 0 0
-0 0 0 0 0 0 0 0 0 -0 -0 -0 -0 -0 -0 -0 -0 0 0 0 0 0 0 0 0 0 0 0 0 0 0 0 0 0 0 0 0 0 0 0 0 0 0
0 0 0 0 0 0 0 0 -0 -0 -0 -0 -0 -0 -0 -0 0 0 -0 0 0 0 0 0 0 0 0 0 0 0 0 0 0 0 0 0 0 0 0 0 0 0 0
-0 -0 -0 0 -0 -0 -0 -0 -0 -0 -0 -0 -0 -0 -0 -0 0 0 0 0 0 0 0 0 0 0 0 0 0 0 0 0 0 0 0 0 0 0 0 0 0 0 0
0 0 -0 -0 -0 -0 -0 -0 -0 -0 -0 -0 -0 -0 -0 -0 0 0 0 0 0 0 0 0 0 0 0 -0 0 0 0 0 0 0 0 0 0 0 0 0 0 0 0
-0 -0 -0 -0 -0 -0 -0 -0 -0 -0 -0 -0 -0 -0 -0 -0 0 0 0 0 0 0 0 0 0 0 0 0 0 0 0 0 0 0 0 0 0 0 0 0 0 0 0
0 -0 -0 -0 -0 -0 -0 -0 -0 -0 -0 -0 -0 -0 -0 -0 0 -0 -0 0 0 0 0 0 0 0 0 0 0 0 0 0 0 0 0 0 0 0 0 0 0 0 0
0 -0 -0 -0 0 -0 -0 -0 -0 -0 -0 -0 -0 0 0 0 0 0 0 0 0 0 0 0 0 0 0 0 0 0 0 0 0 0 0 0 0 0 0 0 0 0 0
-0 -0 -0 -0 -0 -0 -0 -0 -0 -0 -0 -0 0 0 -0 -0 0 0 0 0 0 0 0 0 0 0 0 0 0 0 0 0 0 0 0 0 0 0 0 0 0 0 0
-0 -0 -0 -0 -0 -0 0 0 0 -0 -0 -0 -0 -0 -0 -0 0 0 0 0 0 0 0 0 0 0 0 0 0 0 0 0 0 0 0 0 0 0 0 0 0 0 0
0 0 -0 0 0 0 0 0 -0 -0 0 -0 -0 -0 0 0 0 0 0 0 0 0 0 0 0 0 0 0 0 0 0 0 0 0 0 0 0 0 0 0 0 0 0
0 0 0 0 0 0 0 0 0 0 0 0 0 -0 0 0 0 0 0 0 0 0 0 0 0 0 0 0 0 0 0 0 0 0 0 0 0 0 0 0 0 0 0
1 0 0 0 0 0 0 0 0 0 0 0 0 0 0 0 0 0 0 0 0 0 0 0 0 0 0 0 0 0 0 0 0 0 0 0 0 0 0 0 0 0 0
1 1 0 0 0 0 0 0 0 0 0 0 0 0 0 0 0 0 0 0 0 0 0 0 0 0 0 0 0 0 0 0 0 0 0 0 0 0 0 0 0 0 0
1 1 0 0 0 0 0 0 0 0 0 0 0 0 0 0 0 0 0 0 0 0 0 0 0 0 0 0 0 0 0 0 0 0 0 0 0 0 0 0 0 0 0
1 1 0 0 0 0 0 0 0 0 0 0 0 0 0 0 0 0 0 0 0 0 0 0 0 0 0 0 0 0 0 0 0 0 0 0 0 0 0 0 0 0 0
2 1 0 0 0 0 0 0 0 0 0 0 0 0 0 0 0 0 0 0 0 0 0 0 0 0 0 0 0 0 0 0 0 0 0 0 0 0 0 0 0 0 0
2 1 0 0 0 0 0 0 0 0 0 0 0 0 0 0 0 0 0 0 0 0 0 0 0 0 0 0 0 0 0 0 0 0 0 0 0 0 0 0 0 0 0
1 1 1 1 0 0 0 0 0 0 0 0 0 0 0 0 0 0 0 0 0 0 0 0 0 0 0 0 0 0 0 0 0 0 0 0 0 0 0 0 0 0 0
1 1 1 1 0 0 0 0 0 0 0 0 0 0 0 0 0 0 0 0 0 0 0 0 0 0 0 0 0 0 0 0 0 0 0 0 0 0 0 0 0 0 0
1 1 1 1 0 0 0 0 0 0 0 0 0 0 0 0 0 0 0 0 0 0 0 0 0 0 0 0 0 0 0 0 0 0 0 0 0 0 0 0 0 0 0
1 1 1 1 1 0 0 0 0 0 0 0 0 0 0 0 0 0 0 0 0 0 0 0 0 0 0 0 0 0 0 0 0 0 0 0 0 0 0 0 0 0 0
Wind_Speed_500mb
45 40 35 23 18 15 15 12 6 7 10 14 10 9 8 10 7 4 3 5 3 4 8 11 11 13 12 13 12 13 16 13 10 10 17 24 21 22 21 21 20 20 31
47 45 38 32 28 25 19 14 14 15 13 11 9 9 10 7 5 4 4 7 12 12 13 14 15 15 20 19 18 21 18 17 12 12 15 17 25 23 24 21 18 18 19
46 44 42 38 30 24 18 19 21 15 10 9 6 9 10 11 8 10 13 15 15 16 17 18 19 18 19 21 20 20 20 20 19 16 17 18 21 23 24 22 22 19 20
42 40 35 33 31 26 23 21 15 13 8 9 13 15 13 13 14 14 14 15 17 17 18 17 16 17 19 22 22 24 23 21 22 19 19 19 21 26 24 26 25 20 24
42 38 36 33 30 26 23 18 13 14 12 17 19 18 17 15 13 15 16 17 17 18 18 19 22 25 26 25 21 24 24 20 19 18 18 20 24 27 29 26 24 21 21
42 40 39 38 31 24 21 19 15 14 21 23 22 20 19 15 19 21 22 18 18 18 18 19 22 23 25 26 27 24 25 20 20 19 18 20 23 23 25 23 25 25 23
40 39 43 40 35 31 29 21 20 26 28 26 23 20 18 19 23 22 28 19 20 21 21 19 15 15 17 17 22 22 21 20 21 20 19 19 19 22 23 22 25 23 22
45 43 42 42 39 32 27 28 30 31 31 28 25 22 20 22 23 23 21 25 25 25 23 20 17 17 15 14 13 14 16 17 16 15 16 17 20 25 26 24 25 27 20
50 50 46 40 37 32 33 32 35 36 34 29 26 24 21 22 25 24 28 24 23 22 22 20 17 18 17 14 11 12 13 16 22 21 22 22 23 25 26 21 24 24 26
53 47 45 42 37 36 32 38 41 36 33 32 30 26 22 23 30 29 31 21 21 17 17 19 18 15 17 16 14 14 13 13 13 14 19 22 23 28 38 28 25 25 27
54 48 45 41 38 36 38 44 42 40 37 35 31 28 26 25 32 32 37 19 15 16 12 12 9 13 18 18 17 15 15 15 17 14 14 15 18 20 22 22 27 23 21
54 51 49 46 45 42 44 46 44 41 39 37 34 31 30 30 29 30 28 26 25 15 14 10 7 12 17 18 17 18 19 21 12 12 13 17 19 21 20 22 24 24 16
55 55 52 51 48 46 49 49 49 45 38 36 34 30 30 32 31 29 26 24 20 17 13 13 4 9 18 18 17 15 18 11 14 15 16 18 20 20 20 21 20 23 20
58 59 57 55 52 52 54 51 46 44 39 37 36 35 33 33 32 34 29 27 21 18 15 8 5 6 8 6 15 13 7 8 10 14 16 18 20 19 19 22 23 23 22
61 62 60 59 56 57 50 49 42 41 38 39 37 35 38 37 36 35 31 25 20 21 20 11 6 3 1 2 5 6 6 7 8 11 14 18 19 19 20 22 23 24 23
66 66 63 58 60 55 53 55 52 46 42 39 40 34 33 33 34 31 34 34 31 24 18 12 8 5 2 2 4 7 9 10 8 9 13 18 19 19 21 20 22 23 26
66 65 59 53 55 56 52 51 57 51 49 46 42 40 41 34 35 36 35 32 33 32 27 22 16 11 8 2 2 5 9 10 11 9 12 15 17 18 22 22 24 23 25
68 64 64 60 57 59 58 52 52 59 61 58 53 50 45 37 37 38 36 34 40 40 28 23 21 16 10 8 5 5 7 10 9 9 12 16 16 17 18 20 20 22 25
72 68 63 57 56 56 57 53 50 50 51 50 57 57 54 50 45 41 38 36 30 28 28 25 23 20 16 13 11 9 10 9 10 8 10 13 15 14 16 18 19 26 31
73 73 72 64 59 62 59 59 55 53 53 53 56 65 64 61 58 53 47 43 34 33 32 31 30 27 24 21 19 15 11 12 10 10 12 14 15 14 15 18 20 24 28
75 78 76 64 64 66 63 63 60 58 59 58 55 58 68 65 61 55 52 48 46 43 41 41 40 39 35 32 28 23 18 14 14 11 11 12 14 11 13 16 19 23 27
69 76 81 71 60 60 62 59 58 55 53 53 51 50 63 59 53 50 50 50 50 49 52 53 53 48 44 43 34 26 22 20 15 14 11 10 10 9 12 13 18 22 27
64 67 75 71 62 61 63 59 58 57 55 53 53 55 67 67 55 54 54 52 50 53 55 55 59 52 50 47 38 34 30 27 18 15 13 10 8 7 8 11 15 21 27
63 62 59 61 61 60 58 59 56 57 53 52 54 55 59 62 61 57 57 55 55 61 64 62 64 63 58 53 48 34 32 29 23 17 16 11 9 9 6 9 14 20 25
62 61 60 60 61 63 57 61 63 57 62 59 59 59 63 70 67 61 57 59 60 61 70 66 67 72 66 61 60 49 37 38 35 25 18 14 9 9 8 8 11 16 23
69 67 65 62 64 66 67 68 73 74 73 63 57 72 77 75 66 66 74 72 78 77 77 73 76 78 73 61 63 52 51 43 45 32 21 19 13 10 8 10 13 16 21
Wind_Direction_500mb
181 173 167 187 211 227 225 248 253 297 282 268 255 254 256 250 227 233 293 316 44 53 72 73 69 66 53 39 35 28 17 42 27 27 23 13 20 23 19 33 25 18 0
190 195 207 210 214 218 222 231 263 265 229 222 222 227 214 200 192 182 137 107 100 88 76 67 61 54 51 57 41 53 54 45 54 51 36 23 23 26 26 30 39 22 10
187 192 194 199 200 208 214 226 231 218 190 184 186 171 169 170 143 128 120 105 97 88 81 74 68 64 69 61 67 65 51 55 55 58 39 34 23 29 28 24 27 21 27
181 188 183 181 193 197 209 214 199 179 181 169 162 164 153 128 120 115 114 114 101 93 84 79 78 72 67 59 60 54 61 53 52 53 47 37 31 24 29 26 21 10 24
179 180 178 178 180 197 204 199 192 173 167 168 161 151 138 117 123 128 124 116 111 102 86 76 82 79 75 87 68 64 64 64 53 46 40 31 26 22 19 14 14 11 360
175 177 180 188 192 194 194 185 186 169 165 159 151 151 142 146 150 143 126 126 115 102 97 93 84 77 77 71 64 57 53 59 43 47 29 23 14 12 4 13 2 2 356
183 181 186 190 189 189 192 185 175 160 158 153 153 147 144 146 137 134 127 122 111 108 107 104 94 87 75 56 47 46 40 35 37 35 32 25 11 4 0 4 359 360 349
193 192 191 192 195 193 187 178 164 161 159 157 153 148 145 140 134 135 129 120 115 110 104 100 100 98 93 77 50 40 36 19 34 43 36 23 11 3 7 355 347 351 355
201 200 198 198 195 188 185 172 167 164 161 160 155 149 146 145 137 134 123 122 118 112 109 107 96 84 67 53 44 41 42 36 12 23 20 13 6 9 7 17 6 1 355
203 201 199 198 195 189 181 175 173 168 166 162 159 154 150 150 142 142 127 134 122 120 107 99 96 68 41 34 52 54 43 32 33 23 11 12 16 0 359 13 8 6 357
204 199 200 197 193 189 182 179 175 169 173 169 168 164 160 157 150 145 138 145 130 122 114 112 89 51 30 29 40 44 43 59 15 22 15 10 6 2 360 8 10 13 358
205 199 199 196 192 190 186 178 179 181 179 175 176 169 171 165 161 155 151 153 145 136 133 145 77 39 23 28 34 32 45 44 12 12 9 3 2 357 359 3 0 4 357
201 200 197 194 194 191 186 185 183 184 182 177 176 172 175 179 177 171 164 158 152 138 163 164 86 41 37 18 21 25 46 20 14 7 360 357 358 352 4 354 357 353 345
197 198 196 196 195 192 188 189 187 185 184 183 182 182 184 183 186 186 180 176 170 172 174 158 73 74 61 43 26 12 23 25 33 5 357 352 354 355 354 350 350 348 349
198 197 197 197 196 191 186 189 190 194 191 188 187 187 187 190 192 189 183 180 180 188 167 177 155 151 27 355 349 352 360 6 3 353 354 351 352 351 347 347 344 343 339
197 197 195 193 188 188 188 193 194 198 196 194 187 185 193 194 204 193 190 187 189 185 170 184 189 207 257 292 314 346 344 348 331 350 348 348 349 346 335 344 335 338 336
201 195 193 188 184 186 189 194 196 197 193 195 192 192 195 197 192 194 194 193 188 187 183 196 196 201 212 245 286 306 320 306 328 348 339 343 343 339 337 338 338 339 335
200 202 199 194 189 191 193 194 195 201 199 198 193 190 195 191 194 197 196 197 199 201 201 208 211 204 213 220 242 286 300 315 315 323 331 336 337 332 335 334 334 326 331
197 200 198 197 193 193 192 192 194 198 199 199 198 197 195 195 196 200 203 207 204 210 214 214 221 222 220 223 233 247 290 288 292 297 311 322 319 327 325 325 329 331 335
199 207 203 198 194 194 195 195 195 198 196 197 200 205 203 202 205 207 210 207 205 209 210 210 210 221 223 226 231 242 267 286 289 303 298 305 307 317 327 326 332 332 333
199 207 204 198 201 201 199 200 200 200 200 202 203 204 211 212 210 211 214 215 213 212 210 211 211 201 213 220 225 234 244 259 270 269 284 300 300 313 324 324 331 332 332
198 207 207 204 202 203 203 203 204 207 207 206 206 210 216 216 209 211 212 214 213 214 218 217 211 216 206 216 223 228 240 246 257 263 272 282 286 299 318 328 332 333 338
201 205 207 204 204 206 204 205 207 208 210 210 208 210 220 214 210 213 215 216 210 212 217 220 217 212 215 220 220 219 226 240 241 251 258 257 252 269 300 321 332 337 339
203 206 206 203 203 207 206 207 209 210 214 215 214 213 224 217 216 217 218 217 213 215 215 222 225 219 222 224 232 217 236 233 238 251 274 241 223 266 294 316 330 330 339
206 207 208 207 205 203 206 203 207 213 214 212 218 218 218 234 224 219 223 221 222 219 220 225 226 224 221 226 238 238 227 245 252 251 267 226 218 245 254 284 308 330 333
207 209 209 208 207 209 219 224 230 219 219 225 229 229 228 230 228 228 230 236 231 227 227 228 235 232 231 225 231 236 232 240 245 245 239 219 208 219 246 282 305 318 326
Wind_Speed_850mb
45 40 35 23 18 15 15 12 6 7 10 14 10 9 8 10 7 4 3 5 3 4 8 11 11 13 12 13 12 13 16 13 10 10 17 24 21 22 21 21 20 20 31
47 45 38 32 28 25 19 14 14 15 13 11 9 9 10 7 5 4 4 7 12 12 13 14 15 15 20 19 18 21 18 17 12 12 15 17 25 23 24 21 18 18 19
46 44 42 38 30 24 18 19 21 15 10 9 6 9 10 11 8 10 13 15 15 16 17 18 19 18 19 21 20 20 20 20 19 16 17 18 21 23 24 22 22 19 20
42 40 35 33 31 26 23 21 15 13 8 9 13 15 13 13 14 14 14 15 17 17 18 17 16 17 19 22 22 24 23 21 22 19 19 19 21 26 24 26 25 20 24
42 38 36 33 30 26 23 18 13 14 12 17 19 18 17 15 13 15 16 17 17 18 18 19 22 25 26 25 21 24 24 20 19 18 18 20 24 27 29 26 24 21 21
42 40 39 38 31 24 21 19 15 14 21 23 22 20 19 15 19 21 22 18 18 18 18 19 22 23 25 26 27 24 25 20 20 19 18 20 23 23 25 23 25 25 23
40 39 43 40 35 31 29 21 20 26 28 26 23 20 18 19 23 22 28 19 20 21 21 19 15 15 17 17 22 22 21 20 21 20 19 19 19 22 23 22 25 23 22
45 43 42 42 39 32 27 28 30 31 31 28 25 22 20 22 23 23 21 25 25 25 23 20 17 17 15 14 13 14 16 17 16 15 16 17 20 25 26 24 25 27 20
50 50 46 40 37 32 33 32 35 36 34 29 26 24 21 22 25 24 28 24 23 22 22 20 17 18 17 14 11 12 13 16 22 21 22 22 23 25 26 21 24 24 26
53 47 45 42 37 36 32 38 41 36 33 32 30 26 22 23 30 29 31 21 21 17 17 19 18 15 17 16 14 14 13 13 13 14 19 22 23 28 38 28 25 25 27
54 48 45 41 38 36 38 44 42 40 37 35 31 28 26 25 32 32 37 19 15 16 12 12 9 13 18 18 17 15 15 15 17 14 14 15 18 20 22 22 27 23 21
54 51 49 46 45 42 44 46 44 41 39 37 34 31 30 30 29 30 28 26 25 15 14 10 7 12 17 18 17 18 19 21 12 12 13 17 19 21 20 22 24 24 16
55 55 52 51 48 46 49 49 49 45 38 36 34 30 30 32 31 29 26 24 20 17 13 13 4 9 18 18 17 15 18 11 14 15 16 18 20 20 20 21 20 23 20
58 59 57 55 52 52 54 51 46 44 39 37 36 35 33 33 32 34 29 27 21 18 15 8 5 6 8 6 15 13 7 8 10 14 16 18 20 19 19 22 23 23 22
61 62 60 59 56 57 50 49 42 41 38 39 37 35 38 37 36 35 31 25 20 21 20 11 6 3 1 2 5 6 6 7 8 11 14 18 19 19 20 22 23 24 23
66 66 63 58 60 55 53 55 52 46 42 39 40 34 33 33 34 31 34 34 31 24 18 12 8 5 2 2 4 7 9 10 8 9 13 18 19 19 21 20 22 23 26
66 65 59 53 55 56 52 51 57 51 49 46 42 40 41 34 35 36 35 32 33 32 27 22 16 11 8 2 2 5 9 10 11 9 12 15 17 18 22 22 24 23 25
68 64 64 60 57 59 58 52 52 59 61 58 53 50 45 37 37 38 36 34 40 40 28 23 21 16 10 8 5 5 7 10 9 9 12 16 16 17 18 20 20 22 25
72 68 63 57 56 56 57 53 50 50 51 50 57 57 54 50 45 41 38 36 30 28 28 25 23 20 16 13 11 9 10 9 10 8 10 13 15 14 16 18 19 26 31
73 73 72 64 59 62 59 59 55 53 53 53 56 65 64 61 58 53 47 43 34 33 32 31 30 27 24 21 19 15 11 12 10 10 12 14 15 14 15 18 20 24 28
75 78 76 64 64 66 63 63 60 58 59 58 55 58 68 65 61 55 52 48 46 43 41 41 40 39 35 32 28 23 18 14 14 11 11 12 14 11 13 16 19 23 27
69 76 81 71 60 60 62 59 58 55 53 53 51 50 63 59 53 50 50 50 50 49 52 53 53 48 44 43 34 26 22 20 15 14 11 10 10 9 12 13 18 22 27
64 67 75 71 62 61 63 59 58 57 55 53 53 55 67 67 55 54 54 52 50 53 55 55 59 52 50 47 38 34 30 27 18 15 13 10 8 7 8 11 15 21 27
63 62 59 61 61 60 58 59 56 57 53 52 54 55 59 62 61 57 57 55 55 61 64 62 64 63 58 53 48 34 32 29 23 17 16 11 9 9 6 9 14 20 25
62 61 60 60 61 63 57 61 63 57 62 59 59 59 63 70 67 61 57 59 60 61 70 66 67 72 66 61 60 49 37 38 35 25 18 14 9 9 8 8 11 16 23
69 67 65 62 64 66 67 68 73 74 73 63 57 72 77 75 66 66 74 72 78 77 77 73 76 78 73 61 63 52 51 43 45 32 21 19 13 10 8 10 13 16 21
Wind_Direction_850mb
181 173 167 187 211 227 225 248 253 297 282 268 255 254 256 250 227 233 293 316 44 53 72 73 69 66 53 39 35 28 17 42 27 27 23 13 20 23 19 33 25 18 0
190 195 207 210 214 218 222 231 263 265 229 222 222 227 214 200 192 182 137 107 100 88 76 67 61 54 51 57 41 53 54 45 54 51 36 23 23 26 26 30 39 22 10
187 192 194 199 200 208 214 226 231 218 190 184 186 171 169 170 143 128 120 105 97 88 81 74 68 64 69 61 67 65 51 55 55 58 39 34 23 29 28 24 27 21 27
181 188 183 181 193 197 209 214 199 179 181 169 162 164 153 128 120 115 114 114 101 93 84 79 78 72 67 59 60 54 61 53 52 53 47 37 31 24 29 26 21 10 24
179 180 178 178 180 197 204 199 192 173 167 168 161 151 138 117 123 128 124 116 111 102 86 76 82 79 75 87 68 64 64 64 53 46 40 31 26 22 19 14 14 11 360
175 177 180 188 192 194 194 185 186 169 165 159 151 151 142 146 150 143 126 126 115 102 97 93 84 77 77 71 64 57 53 59 43 47 29 23 14 12 4 13 2 2 356
183 181 186 190 189 189 192 185 175 160 158 153 153 147 144 146 137 134 127 122 111 108 107 104 94 87 75 56 47 46 40 35 37 35 32 25 11 4 0 4 359 360 349
193 192 191 192 195 193 187 178 164 161 159 157 153 148 145 140 134 135 129 120 115 110 104 100 100 98 93 77 50 40 36 19 34 43 36 23 11 3 7 355 347 351 355
201 200 198 198 195 188 185 172 167 164 161 160 155 149 146 145 137 134 123 122 118 112 109 107 96 84 67 53 44 41 42 36 12 23 20 13 6 9 7 17 6 1 355
203 201 199 198 195 189 181 175 173 168 166 162 159 154 150 150 142 142 127 134 122 120 107 99 96 68 41 34 52 54 43 32 33 23 11 12 16 0 359 13 8 6 357
204 199 200 197 193 189 182 179 175 169 173 169 168 164 160 157 150 145 138 145 130 122 114 112 89 51 30 29 40 44 43 59 15 22 15 10 6 2 360 8 10 13 358
205 199 199 196 192 190 186 178 179 181 179 175 176 169 171 165 161 155 151 153 145 136 133 145 77 39 23 28 34 32 45 44 12 12 9 3 2 357 359 3 0 4 357
201 200 197 194 194 191 186 185 183 184 182 177 176 172 175 179 177 171 164 158 152 138 163 164 86 41 37 18 21 25 46 20 14 7 360 357 358 352 4 354 357 353 345
197 198 196 196 195 192 188 189 187 185 184 183 182 182 184 183 186 186 180 176 170 172 174 158 73 74 61 43 26 12 23 25 33 5 357 352 354 355 354 350 350 348 349
198 197 197 197 196 191 186 189 190 194 191 188 187 187 187 190 192 189 183 180 180 188 167 177 155 151 27 355 349 352 360 6 3 353 354 351 352 351 347 347 344 343 339
197 197 195 193 188 188 188 193 194 198 196 194 187 185 193 194 204 193 190 187 189 185 170 184 189 207 257 292 314 346 344 348 331 350 348 348 349 346 335 344 335 338 336
201 195 193 188 184 186 189 194 196 197 193 195 192 192 195 197 192 194 194 193 188 187 183 196 196 201 212 245 286 306 320 306 328 348 339 343 343 339 337 338 338 339 335
200 202 199 194 189 191 193 194 195 201 199 198 193 190 195 191 194 197 196 197 199 201 201 208 211 204 213 220 242 286 300 315 315 323 331 336 337 332 335 334 334 326 331
197 200 198 197 193 193 192 192 194 198 199 199 198 197 195 195 196 200 203 207 204 210 214 214 221 222 220 223 233 247 290 288 292 297 311 322 319 327 325 325 329 331 335
199 207 203 198 194 194 195 195 195 198 196 197 200 205 203 202 205 207 210 207 205 209 210 210 210 221 223 226 231 242 267 286 289 303 298 305 307 317 327 326 332 332 333
199 207 204 198 201 201 199 200 200 200 200 202 203 204 211 212 210 211 214 215 213 212 210 211 211 201 213 220 225 234 244 259 270 269 284 300 300 313 324 324 331 332 332
198 207 207 204 202 203 203 203 204 207 207 206 206 210 216 216 209 211 212 214 213 214 218 217 211 216 206 216 223 228 240 246 257 263 272 282 286 299 318 328 332 333 338
201 205 207 204 204 206 204 205 207 208 210 210 208 210 220 214 210 213 215 216 210 212 217 220 217 212 215 220 220 219 226 240 241 251 258 257 252 269 300 321 332 337 339
203 206 206 203 203 207 206 207 209 210 214 215 214 213 224 217 216 217 218 217 213 215 215 222 225 219 222 224 232 217 236 233 238 251 274 241 223 266 294 316 330 330 339
206 207 208 207 205 203 206 203 207 213 214 212 218 218 218 234 224 219 223 221 222 219 220 225 226 224 221 226 238 238 227 245 252 251 267 226 218 245 254 284 308 330 333
207 209 209 208 207 209 219 224 230 219 219 225 229 229 228 230 228 228 230 236 231 227 227 228 235 232 231 225 231 236 232 240 245 245 239 219 208 219 246 282 305 318 326